Location: Glendo
(42.5037°N, 105.0248°W)
Time: 04:41:00
(UTC+00:00)

Envisat - Pass Details

Date: 04 February 2022
Orbit: 764 x 765 km, 98.2° (Epoch: 21 May)

Event Time Altitude Azimuth Distance (km) Brightness Sun altitude
Rises 12:03:27 0° 11° (N) 3,240 6.4 -23.7°
Reaches altitude 10° 12:05:46 10° 10° (N) 2,310 5.6 -23.3°
Maximum altitude 12:10:51 78° 286° (WNW) 788 2.8 -22.4°
Drops below altitude 10° 12:15:54 10° 200° (SSW) 2,295 5.3 -21.4°
Sets 12:18:12 0° 199° (SSW) 3,218 6.1 -21.0°
